Tracking 29892 objects as of 21-Nov-2024
HD Live streaming from Space Station
objects crossing your sky now

STARLINK-30116

Track STARLINK-30116 now!
10-day predictions
STARLINK-30116 is classified as:


NORAD ID: 57465
Int'l Code: 2023-107J
Perigee: 565.1 km
Apogee: 567.2 km
Inclination: 43.0 °
Period: 95.8 minutes
Semi major axis: 6937 km
RCS: Unknown
Launch date: July 28, 2023
Source: (TBD)
Launch site: AIR FORCE EASTERN TEST RANGE (AFETR)
Your satellite tracking list
Your tracking list is empty




NASA's NSSDC Master Catalog

Two Line Element Set (TLE):
1 57465U 23107J   24326.17117002  .00002024  00000-0  16486-3 0  9992
2 57465  43.0043  31.9628 0001529 279.5032  80.5637 15.02545749 73761
Source of the keplerian elements: AFSPC